Location: Helion Bumpstead
(52.0500°N, 0.4000°E)
Time: 22:08:58
(UTC+00:00)

ADEOS Rocket - Pass Details

Date: 15 November 2025
Orbit: 858 x 1304 km, 98.7° (Epoch: 06 December)

Event Time Altitude Azimuth Distance (km) Brightness Sun altitude
Rises 03:47:01 0° 14° (NNE) 3,851 6.4 -32.2°
Reaches altitude 10° 03:49:26 10° 13° (NNE) 2,952 5.7 -31.9°
Enters shadow 03:55:46 73° 321° (NW) 1,225 3.3 -30.9°
